User: anonymous   Login
Location: Unspecified
(0.0000°N, 0.0000°E)
Time: 17:17:56
(UTC+00:00)
Language:

PAKSAT 1R - Orbit

View from above orbital plane
View from above orbital plane
View from above satellite
View from above satellite

Ground track
Ground track

The orbit data is extracted from the following two-line orbital elements,

1 37779U 11042A   17055.09804767  .00000144  00000-0  00000+0 0  9998
2 37779   0.0149 314.3067 0003589  25.2628 247.8785  1.00274291 20181
Epoch (UTC): 24 February 2017 02:21:11
Eccentricity: 0.0003589
inclination: 0.0149°
perigee height: 35770 km
apogee height: 35800 km
right ascension of ascending node: 314.3067°
argument of perigee: 25.2628°
revolutions per day: 1.00274291
mean anomaly at epoch: 247.8785°
orbit number at epoch: 2018

The dashed part of the orbit path shows where the satellite is in the earth's shadow,  

DLR